#timestamp,LO_Frequency,Hit,StdDev 
1550836815.8,286047004.8,P
1550836835.6,286047005.5,N
1550836855.5,286046999.2,N
1550836875.3,286046994.0,N
1550836895.2,286046994.1,N
1550836915.9,286046995.6,N
1550836935.7,286047004.5,N
1550836955.6,286047006.0,N
1550836975.4,286047007.9,N
1550836995.2,286047010.5,N
1550837015.1,286047010.1,N
1550837016.0,286047010.1,N
1550837035.8,286047005.9,N
1550837055.7,286047000.4,N
1550837075.5,286047001.1,N
1550837095.3,286046999.5,N
1550837115.2,286046996.8,N
1550837135.0,286046994.0,N
1550837135.9,286046994.0,N
1550837155.8,286046986.6,N
1550837175.6,286046984.9,N
1550837195.4,286046983.9,N
1550837215.3,286046993.0,N
1550837235.1,286046987.8,N
1550837255.8,286046984.0,N
1550837275.7,286046989.7,N
1550837295.5,286046990.4,N
1550837315.4,286046989.4,N
1550837335.2,286046986.3,N
1550837355.0,286046979.4,N
1550837355.9,286046979.4,N
1550837375.8,286046981.1,N
1550837395.6,286046978.1,N
1550837415.4,286046977.9,N
1550837435.3,286046977.5,N
1550837455.1,286046977.7,N
1550837475.9,286046977.0,N
1550837495.7,286046975.7,N
1550837515.5,286046982.4,N
1550837535.4,286046983.7,N
1550837555.2,286046982.8,N
1550837575.1,286046980.2,N
1550837576.0,286046980.2,N
1550837595.8,286046976.1,Y
1550837615.6,286046990.5,P
1550837635.5,286046995.2,N
1550837655.3,286047000.5,N
1550837675.2,286046997.2,N
1550837695.9,286046993.3,N
1550837715.7,286046991.0,N
1550837735.6,286046988.7,N
1550837755.4,286046993.2,N
1550837775.2,286046999.4,N
1550837795.1,286046996.2,N
1550837796.0,286046996.2,N
1550837815.8,286047001.2,N
1550837835.7,286047002.7,N
1550837855.5,286046994.9,N
1550837875.3,286046996.5,N
1550837895.2,286047000.8,N
1550837915.0,286047002.2,N
1550837915.9,286047002.2,N
1550837935.8,286046999.2,N
1550837955.6,286047001.7,N
1550837975.4,286047005.3,N
1550837995.3,286047000.8,N
1550838015.1,286047002.2,N
1550838035.8,286047005.9,N
1550838055.7,286047002.5,N
1550838075.5,286047004.2,N
1550838095.4,286047000.5,N
1550838115.2,286047000.3,N
1550838135.0,286046996.8,N
1550838135.9,286046996.8,N
1550838155.8,286046995.8,N
1550838175.6,286046996.0,N
1550838195.5,286047002.1,N
1550838215.3,286047002.6,N
1550838235.1,286047005.4,N
1550838255.9,286047001.9,N
1550838275.7,286046999.9,N
1550838295.5,286046996.2,N
1550838315.4,286046990.4,Y
1550838335.2,286046994.9,P
1550838355.1,286047000.2,N
1550838356.0,286047000.2,N
1550838375.8,286047004.4,N
1550838395.6,286047005.1,N
1550838415.5,286047001.3,N
1550838435.3,286046996.9,N
1550838455.2,286046997.6,N
1550838475.9,286046994.8,N
1550838495.7,286046994.0,N
1550838515.6,286046999.0,N
1550838535.4,286046992.2,N
1550838555.2,286046992.5,N
1550838575.1,286046995.6,N
1550838576.0,286046995.6,N
1550838595.8,286046996.6,N
1550838615.7,286046995.5,N
1550838635.5,286046999.4,N
1550838655.3,286047002.1,N
1550838675.2,286046997.0,N
1550838695.0,286047001.3,N
1550838695.9,286047001.3,N
1550838715.8,286047008.3,N
1550838735.6,286047008.2,N
1550838755.4,286047008.8,N
1550838775.3,286047005.1,N
1550838795.1,286047000.3,N
1550838815.8,286047006.8,N
1550838835.7,286047006.4,N
1550838855.5,286047002.6,N
1550838875.4,286047004.2,N
1550838895.2,286047006.1,N
1550838915.0,286047005.0,N
1550838915.9,286047005.0,N
1550838935.8,286047005.9,N
1550838955.6,286047005.4,N
1550838975.5,286047003.6,N
1550838995.3,286047003.3,N
1550839015.1,286047006.2,N
1550839035.9,286047005.5,N
1550839055.7,286046999.4,N
1550839075.5,286046997.1,N
1550839095.4,286046999.9,N
1550839115.2,286046993.4,N
1550839135.1,286046990.6,N
1550839136.0,286046990.6,N
1550839155.8,286046999.4,N
1550839175.6,286047007.0,N
1550839195.5,286047011.1,N
1550839215.3,286047006.6,N
1550839235.2,286047004.2,N
1550839255.9,286047002.6,N
1550839275.7,286046998.7,N
1550839295.6,286047001.0,N
1550839315.4,286047003.0,N
1550839335.2,286046999.4,N
1550839355.1,286046998.4,N
1550839356.0,286046998.4,N
1550839375.8,286047000.9,N
1550839395.7,286046998.1,N
1550839415.5,286046999.8,N
1550839435.3,286046999.6,N
1550839455.2,286046996.5,N
1550839475.0,286046998.8,N
1550839475.9,286046998.8,N
1550839495.8,286046998.1,N
1550839515.6,286046995.1,N
1550839535.4,286046998.1,N
1550839555.3,286047004.1,N
1550839575.1,286046998.5,N
1550839595.9,286046999.3,N
1550839615.7,286047001.8,N
1550839635.5,286047004.2,N
1550839655.4,286047006.7,N
1550839675.2,286047004.3,N
1550839695.0,286047011.4,N
1550839695.9,286047011.4,N
1550839715.8,286047017.2,Y
1550839735.6,286047012.8,P
1550839755.5,286047014.8,N
1550839775.3,286047011.8,N
1550839795.1,286047015.6,Y
1550839815.9,286047007.0,P
1550839835.7,286047015.9,P
1550839855.6,286047008.1,N
1550839875.4,286047009.2,N
1550839895.2,286047011.7,Y
1550839915.1,286047007.7,P
1550839916.0,286047007.7,P
1550839935.8,286047009.7,P
1550839955.7,286047008.5,Y
1550839975.5,286047001.5,P
1550839995.3,286047004.2,N
1550840015.2,286046998.8,N
1550840035.0,286046992.7,N
1550840035.9,286046992.7,N
1550840055.7,286047002.5,N
1550840075.6,286047006.5,N
1550840095.4,286047009.2,N
1550840115.3,286047006.9,N
1550840135.1,286047007.7,N
1550840155.8,286047005.0,N
1550840175.7,286047003.3,N
1550840195.5,286047002.8,N
1550840215.4,286047004.4,N
1550840235.2,286047009.7,N
1550840255.0,286047009.5,N
1550840255.9,286047009.5,N
1550840275.8,286047012.2,N
1550840295.6,286047007.0,N
1550840315.4,286047007.4,N
1550840335.3,286047007.1,N
1550840355.1,286047003.3,N
1550840375.9,286047000.7,N
1550840395.7,286046998.1,N
